GW0118 Weather Reports


time (UTC)temp
F
wind
direction
speed
knots
gust
knots
rain 1hr
in
rain 24hr
in
rain mn
in
humidity
%
barometer
mb
20260906133109 90 202 9.6 19.1 0.00 0.00 0.00 26 1025.9
20260906131615 89 213 7.8 16.5 0.00 0.00 0.00 26 1026.0
20260906130103 89 210 4.3 15.6 0.00 0.00 0.00 26 1026.1
20260906124605 90 238 4.3 15.6 0.00 0.00 0.00 26 1026.3
20260906123110 89 280 5.2 14.8 0.00 0.00 0.00 26 1026.3
20260906121602 88 271 7.0 14.8 0.00 0.00 0.00 26 1026.4
20260906120126 88 281 3.5 13.9 0.00 0.00 0.00 27 1026.6
20260906114609 87 249 5.2 11.3 0.00 0.00 0.00 28 1026.6
20260906113103 87 195 5.2 18.2 0.00 0.00 0.00 28 1026.7
20260906111640 86 217 3.5 9.6 0.00 0.00 0.00 28 1026.8
20260906110103 84 211 5.2 11.3 0.00 0.00 0.00 31 1026.9
20260906104605 82 108 4.3 10.4 0.00 0.00 0.00 32 1027.0
20260906103102 80 263 1.7 6.1 0.00 0.00 0.00 35 1027.2
20260906101611 79 262 3.5 7.0 0.00 0.00 0.00 35 1027.3
20260906100105 80 250 0.9 5.2 0.00 0.00 0.00 35 1027.3
20260906094606 79 239 4.3 8.7 0.00 0.00 0.00 35 1027.3
20260906093117 79 260 3.5 8.7 0.00 0.00 0.00 35 1027.3
20260906091618 79 235 0.9 5.2 0.00 0.00 0.00 35 1027.2
20260906090137 78 251 0.9 5.2 0.00 0.00 0.00 36 1027.2
20260906084601 76 0 0.9 3.5 0.00 0.00 0.00 39 1027.2
20260906083107 75 0 0.0 0.0 0.00 0.00 0.00 41 1027.3
20260906081611 74 0 0.0 0.0 0.00 0.00 0.00 42 1027.3
20260906080104 74 0 0.0 0.0 0.00 0.00 0.00 42 1027.1
20260906074602 74 198 0.0 1.7 0.00 0.00 0.00 41 1027.3
20260906073105 74 170 0.0 4.3 0.00 0.00 0.00 41 1027.2
20260906071610 74 112 3.5 6.1 0.00 0.00 0.00 41 1027.2
20260906070103 74 221 0.9 5.2 0.00 0.00 0.00 40 1026.9
20260906064601 75 250 1.7 6.1 0.00 0.00 0.00 38 1026.7
20260906063106 74 260 4.3 8.7 0.00 0.00 0.00 39 1026.5
20260906061602 77 294 6.1 20.9 0.00 0.00 0.00 36 1026.7
20260906060106 69 202 1.7 6.1 0.00 0.00 0.00 47 1026.8
20260906054604 68 0 0.9 2.6 0.00 0.00 0.00 53 1026.9
20260906053101 69 141 2.6 4.3 0.00 0.00 0.00 51 1026.6
20260906051606 69 285 0.9 3.5 0.00 0.00 0.00 52 1026.6
20260906050135 69 0 0.0 1.7 0.00 0.00 0.00 51 1026.6
20260906044604 67 130 1.7 3.5 0.00 0.00 0.00 55 1026.3
20260906043112 69 0 0.0 0.9 0.00 0.00 0.00 52 1026.6
20260906041618 67 58 0.0 2.6 0.00 0.00 0.00 54 1026.5
20260906040123 67 68 0.0 1.7 0.00 0.00 0.00 54 1026.3
20260906034611 68 122 1.7 2.6 0.00 0.00 0.00 53 1026.6
20260906033106 67 0 0.0 1.7 0.00 0.00 0.00 56 1027.0
20260906031606 67 114 0.9 3.5 0.00 0.00 0.00 55 1026.9
20260906030135 67 124 1.7 3.5 0.00 0.00 0.00 54 1026.9
20260906024604 68 0 0.0 0.9 0.00 0.00 0.00 53 1026.9
20260906023126 68 0 0.0 1.7 0.00 0.00 0.00 53 1027.0
20260906021613 68 0 0.0 0.9 0.00 0.00 0.00 53 1026.9
20260906020107 68 0 0.0 0.9 0.00 0.00 0.00 53 1026.9
20260906014621 69 0 0.0 0.9 0.00 0.00 0.00 52 1027.1
20260906013102 69 112 0.0 0.9 0.00 0.00 0.00 52 1027.3
20260906011607 69 0 0.0 0.9 0.00 0.00 0.00 52 1027.2
20260906010104 69 100 0.0 0.9 0.00 0.00 0.00 52 1027.3
20260906004609 69 0 0.0 0.9 0.00 0.00 0.00 52 1027.3
20260906003109 70 65 0.0 0.9 0.00 0.00 0.00 51 1027.4
20260906001605 70 0 0.0 0.0 0.00 0.00 0.00 50 1027.7
20260905234615 69 95 0.0 1.7 0.00 0.00 0.00 51 1027.4
20260905233102 70 0 0.0 1.7 0.00 0.00 0.00 49 1027.7
20260905231600 71 0 0.0 0.9 0.00 0.00 0.00 49 1027.8
20260905230106 71 0 0.0 0.9 0.00 0.00 0.00 48 1027.7
20260905224609 72 0 0.0 0.0 0.00 0.00 0.00 47 1027.6
20260905223101 73 0 0.0 1.7 0.00 0.00 0.00 46 1027.6
20260905221602 74 112 0.9 2.6 0.00 0.00 0.00 45 1027.6
20260905220106 74 0 0.9 1.7 0.00 0.00 0.00 44 1027.6
20260905214612 75 0 0.0 4.3 0.00 0.00 0.00 43 1027.6
20260905213111 76 56 0.0 1.7 0.00 0.00 0.00 42 1027.6
20260905211607 76 51 1.7 5.2 0.00 0.00 0.00 41 1027.5
20260905210108 77 0 0.0 4.3 0.00 0.00 0.00 40 1027.6
20260905204602 78 54 2.6 10.4 0.00 0.00 0.00 40 1027.6
20260905203118 79 345 6.1 11.3 0.00 0.00 0.00 38 1027.4
20260905201608 79 326 6.1 13.0 0.00 0.00 0.00 37 1027.3
20260905200106 80 320 7.0 11.3 0.00 0.00 0.00 36 1027.1
20260905194601 81 20 8.7 16.5 0.00 0.00 0.00 35 1026.9
20260905193103 82 332 11.3 17.4 0.00 0.00 0.00 33 1026.5
20260905191614 83 6 9.6 15.6 0.00 0.00 0.00 31 1026.3
20260905190104 84 342 7.8 13.9 0.00 0.00 0.00 30 1026.2
20260905184611 85 294 8.7 14.8 0.00 0.00 0.00 29 1025.9
20260905183106 86 352 5.2 12.2 0.00 0.00 0.00 28 1025.9
20260905181603 88 0 0.0 0.9 0.00 0.00 0.00 26 1025.7
20260905180100 89 321 0.0 0.0 0.00 0.00 0.00 25 1025.6
20260905174619 89 0 0.0 1.7 0.00 0.00 0.00 25 1025.7
20260905173110 89 247 1.7 3.5 0.00 0.00 0.00 25 1025.6
20260905171606 89 269 1.7 4.3 0.00 0.00 0.00 25 1025.6
20260905164603 90 221 3.5 7.0 0.00 0.00 0.00 24 1025.5
20260905163109 90 226 4.3 8.7 0.00 0.00 0.00 24 1025.3
20260905161605 90 255 6.1 11.3 0.00 0.00 0.00 23 1025.3
20260905160110 92 251 3.5 8.7 0.00 0.00 0.00 20 1025.1
20260905154605 92 182 3.5 7.0 0.00 0.00 0.00 20 1025.1
20260905153113 93 257 1.7 12.2 0.00 0.00 0.00 20 1025.0
20260905151601 93 281 4.3 9.6 0.00 0.00 0.00 20 1025.1
20260905150104 93 219 2.6 9.6 0.00 0.00 0.00 21 1025.2
20260905144613 93 157 2.6 7.0 0.00 0.00 0.00 21 1025.3
20260905143108 93 255 3.5 9.6 0.00 0.00 0.00 20 1025.5
20260905141615 93 184 6.1 10.4 0.00 0.00 0.00 20 1025.6
20260905140109 94 22 5.2 13.9 0.00 0.00 0.00 20 1025.8
20260905134612 94 182 4.3 10.4 0.00 0.00 0.00 19 1025.9